Location: Brodeslavy
(49.9527°N, 13.5567°E)
Time: 15:53:56
(UTC+00:00)

NOSS 3-1 (A) - Pass Details

Date: 17 June 2025
Orbit: 639 x 1568 km, 63.4° (Epoch: 21 June)

Event Time Altitude Azimuth Distance (km) Brightness Sun altitude
Rises 21:00:10 0° 315° (NW) 3,637 8.2 -11.4°
Reaches altitude 10° 21:02:34 10° 320° (NW) 2,811 7.4 -11.6°
Maximum altitude 21:09:14 57° 39° (NE) 1,387 4.4 -12.1°
Drops below altitude 10° 21:17:33 10° 117° (ESE) 3,472 5.9 -12.7°
Enters shadow 21:18:24 - 118° (ESE) 3,757 6.1 -12.8°
